Weather reports worldwide

Advertisment
Bluefield, wv, United States of America (2072067): temperature & dewpoint: 04.12.2018 04:00:00 - 10.12.2018 04:00:00 (EST)Bluefield, wv, United States of America (2072067): wind speed: 04.12.2018 04:00:00 - 10.12.2018 04:00:00 (EST)Bluefield, wv, United States of America (2072067): wind direction: 04.12.2018 04:00:00 - 10.12.2018 04:00:00 (EST)Bluefield, wv, United States of America (2072067): reduced air pressure: 04.12.2018 04:00:00 - 10.12.2018 04:00:00 (EST)Bluefield, wv, United States of America (2072067): visibility: 04.12.2018 04:00:00 - 10.12.2018 04:00:00 (EST)Bluefield, wv, United States of America (2072067): precipitation: 04.12.2018 04:00:00 - 10.12.2018 04:00:00 (EST)
Date & Time tt [°C] td [°C] ff [km/h] ff [kn] dd ppp [hPa] vv [km] rr [mm]
10.12.2018 04:00:00 -3,3 -3,9 11 6 W 1018,9 10 0,0
10.12.2018 03:00:00 -3,9 -4,4 9 5 WSW 1019,1 6 0,0
10.12.2018 02:00:00 -3,3 -4,4 5 3 WSW 1018,8 6 0,0
10.12.2018 01:00:00 -3,3 -3,3 5 3 - 1019,1 1,2 0,0
10.12.2018 00:00:00 -3,9 -4,4 0 0 N 1019,5 11 -
09.12.2018 23:00:00 -3,9 -5,0 0 0 N 1019,6 16 -
09.12.2018 22:00:00 -3,9 -5,0 0 0 N 1019,3 16 -
09.12.2018 21:00:00 -5,0 -5,6 8 4 E 1019,6 11 -
09.12.2018 20:00:00 -5,0 -6,1 8 4 E 1020,0 6 0,0
09.12.2018 19:00:00 -5,6 -6,1 8 4 E 1020,3 3,2 0,0
09.12.2018 18:00:00 -5,6 -6,1 5 3 E 1020,0 6 0,0
09.12.2018 17:00:00 -5,6 -6,7 8 4 ENE 1020,5 1,2 0,3
09.12.2018 16:00:00 -5,0 -6,7 9 5 - 1019,9 1,6 0,8
09.12.2018 15:00:00 -5,0 -6,7 11 6 E 1019,9 1,2 0,0
09.12.2018 14:00:00 -5,6 -6,7 13 7 E 1020,7 0,8 2,0
09.12.2018 13:00:00 -5,6 -6,1 15 8 E 1020,5 0,4 1,5
09.12.2018 12:00:00 -5,0 -6,1 16 9 E 1022,0 0,8 0,3
09.12.2018 11:00:00 -5,6 -6,7 15 8 E 1023,2 2,0 0,0
09.12.2018 10:00:00 -5,6 -6,7 16 9 ESE 1024,0 0,4 0,5
09.12.2018 09:00:00 -5,6 -6,7 13 7 ESE 1024,0 0,4 1,8
09.12.2018 08:00:00 -5,0 -6,1 9 5 E 1024,0 0,8 1,5
09.12.2018 07:00:00 -5,0 -6,1 15 8 E 1024,3 0,8 1,8
09.12.2018 06:00:00 -5,0 -6,1 13 7 E 1024,9 0,8 0,3
09.12.2018 05:00:00 -4,4 -5,6 11 6 E 1024,8 1,2 0,0
09.12.2018 04:00:00 -4,4 -5,6 15 8 E 1025,9 1,6 0,0
09.12.2018 03:00:00 -3,9 -5,6 26 14 SE 1026,8 2,0 0,0
09.12.2018 02:00:00 -3,9 -5,6 15 8 SE 1027,6 1,6 0,3
09.12.2018 01:00:00 -1,7 -10,0 21 11 SE 1027,4 16 -
09.12.2018 00:00:00 -1,7 -9,4 21 11 ESE 1028,0 16 -
08.12.2018 23:00:00 -1,1 -8,9 11 6 SE 1028,8 16 -
08.12.2018 22:00:00 -1,7 -9,4 15 8 E 1028,9 16 -
08.12.2018 21:00:00 -1,7 -10,0 11 6 E 1030,1 16 -
08.12.2018 20:00:00 -1,7 -10,0 13 7 ENE 1030,6 16 -
08.12.2018 19:00:00 -1,7 -10,0 8 4 E 1030,8 16 -
08.12.2018 18:00:00 -1,1 -9,4 11 6 - 1029,9 16 -
08.12.2018 17:00:00 -0,6 -8,3 8 4 E 1030,7 16 -
08.12.2018 16:00:00 -0,6 -9,4 8 4 ENE 1030,7 16 -
08.12.2018 15:00:00 0,0 -9,4 8 4 - 1030,4 16 -
08.12.2018 14:00:00 -0,6 -8,9 8 4 - 1031,4 16 -
08.12.2018 13:00:00 -0,6 -8,3 5 3 NNE 1031,4 16 -
08.12.2018 12:00:00 -1,1 -7,8 8 4 NE 1032,3 16 -
08.12.2018 11:00:00 -1,7 -6,1 0 0 N 1032,8 16 -
08.12.2018 10:00:00 -2,8 -5,6 5 3 - 1033,7 16 -
08.12.2018 09:00:00 -2,8 -6,1 0 0 N 1033,3 16 -
08.12.2018 08:00:00 -3,3 -6,1 0 0 N 1032,4 16 -
08.12.2018 07:00:00 -3,3 -6,1 5 3 WSW 1031,6 16 -
08.12.2018 06:00:00 -3,9 -6,1 0 0 N 1031,4 16 -
08.12.2018 05:00:00 -3,3 -5,6 0 0 N 1030,8 16 -
08.12.2018 04:00:00 -3,3 -5,6 0 0 N 1030,5 16 -
08.12.2018 03:00:00 -3,9 -6,1 5 3 SW 1030,6 16 -
08.12.2018 02:00:00 -3,9 -6,1 0 0 N 1030,2 16 -
08.12.2018 01:00:00 -3,9 -6,7 8 4 WSW 1030,4 16 -
08.12.2018 00:00:00 -3,3 -6,7 0 0 N 1029,7 16 -
07.12.2018 23:00:00 -3,3 -6,7 0 0 N 1029,6 16 -
07.12.2018 22:00:00 -2,8 -6,7 0 0 N 1029,9 16 -
07.12.2018 21:00:00 -2,8 -6,7 0 0 N 1030,2 16 -
07.12.2018 20:00:00 -1,7 -6,7 0 0 N 1029,8 16 -
07.12.2018 19:00:00 -2,2 -6,7 5 3 WSW 1030,1 16 -
07.12.2018 18:00:00 -1,1 -6,7 0 0 N 1029,6 16 -
07.12.2018 17:00:00 -0,6 -6,7 8 4 W 1029,3 16 -
07.12.2018 16:00:00 0,0 -6,7 11 6 W 1029,0 16 -
07.12.2018 15:00:00 0,0 -6,7 13 7 WNW 1029,4 16 -
07.12.2018 14:00:00 0,0 -5,6 9 5 W 1029,3 16 -
07.12.2018 13:00:00 0,0 -5,6 15 8 NW 1029,7 16 -
07.12.2018 12:00:00 -0,6 -6,1 13 7 W 1030,6 16 -
07.12.2018 11:00:00 -1,1 -5,0 9 5 W 1031,3 16 -
07.12.2018 10:00:00 -1,1 -5,0 9 5 WNW 1031,1 16 -
07.12.2018 09:00:00 -1,7 -5,0 11 6 W 1030,1 16 -
07.12.2018 08:00:00 -1,7 -5,6 9 5 - 1029,2 16 -
07.12.2018 07:00:00 -1,7 -5,6 9 5 WNW 1028,4 16 -
07.12.2018 06:00:00 -1,1 -6,1 13 7 WNW 1027,5 16 -
07.12.2018 05:00:00 -1,1 -6,1 11 6 WNW 1026,8 16 -
07.12.2018 04:00:00 -1,1 -6,7 11 6 - 1026,6 16 -
07.12.2018 03:00:00 -0,6 -7,2 13 7 WNW 1026,5 16 -
07.12.2018 02:00:00 -0,6 -8,3 15 8 WNW 1026,2 16 -
07.12.2018 01:00:00 -0,6 -8,3 13 7 W 1026,3 16 -
07.12.2018 00:00:00 -1,1 -8,3 9 5 W 1026,1 16 -
06.12.2018 23:00:00 -1,1 -8,9 13 7 W 1026,3 16 -
06.12.2018 22:00:00 -1,1 -8,9 13 7 W 1026,1 16 -
06.12.2018 21:00:00 -1,1 -8,9 9 5 W 1026,5 16 -
06.12.2018 20:00:00 -1,1 -8,3 8 4 W 1026,5 16 -
06.12.2018 19:00:00 -0,6 -8,9 8 4 W 1025,8 16 -
06.12.2018 18:00:00 0,6 -8,9 9 5 W 1025,6 16 -
06.12.2018 17:00:00 0,6 -8,3 11 6 WSW 1025,4 16 -
06.12.2018 16:00:00 1,1 -8,9 11 6 SW 1025,1 16 -
06.12.2018 15:00:00 1,1 -7,8 11 6 WSW 1024,8 16 -
06.12.2018 14:00:00 0,6 -7,2 9 5 SSW 1025,4 16 -
06.12.2018 13:00:00 0,0 -8,3 9 5 W 1026,1 16 -
06.12.2018 12:00:00 -2,2 -7,2 13 7 WSW 1026,9 16 -
06.12.2018 11:00:00 -3,3 -7,8 13 7 WNW 1028,1 16 -
06.12.2018 10:00:00 -5,0 -8,3 15 8 SW 1028,6 16 -
06.12.2018 09:00:00 -5,6 -8,9 15 8 W 1028,5 16 -
06.12.2018 08:00:00 -6,1 -9,4 11 6 W 1028,5 16 -
06.12.2018 07:00:00 -5,6 -9,4 15 8 W 1028,4 16 -
06.12.2018 06:00:00 -5,6 -9,4 16 9 W 1027,9 16 -
06.12.2018 05:00:00 -5,6 -8,9 13 7 W 1026,8 16 -
06.12.2018 04:00:00 -5,6 -9,4 21 11 W 1026,5 16 -
06.12.2018 03:00:00 -5,6 -8,9 16 9 W 1026,6 16 -
06.12.2018 02:00:00 -5,6 -9,4 13 7 WNW 1026,3 16 -
06.12.2018 01:00:00 -5,0 -8,9 21 11 W 1025,6 16 -
06.12.2018 00:00:00 -5,0 -8,3 18 10 WNW 1025,8 16 -
05.12.2018 23:00:00 -5,0 -8,3 11 6 W 1025,7 16 -
05.12.2018 22:00:00 -5,0 -8,3 13 7 WNW 1025,3 16 -
05.12.2018 21:00:00 -5,0 -8,9 13 7 NW 1025,4 16 -
05.12.2018 20:00:00 -5,0 -9,4 15 8 WNW 1025,0 16 -
05.12.2018 19:00:00 -4,4 -8,9 21 11 W 1024,5 16 -
05.12.2018 18:00:00 -4,4 -8,3 13 7 WNW 1023,7 16 -
05.12.2018 17:00:00 -4,4 -8,3 15 8 WNW 1023,1 16 0,0
05.12.2018 16:00:00 -4,4 -8,9 15 8 NW 1022,3 16 0,0
05.12.2018 15:00:00 -3,9 -8,3 11 6 NW 1021,4 16 0,0
05.12.2018 14:00:00 -3,3 -7,2 18 10 WNW 1020,6 16 0,0
05.12.2018 13:00:00 -3,3 -7,2 22 12 WNW 1019,8 10 0,0
05.12.2018 12:00:00 -3,3 -6,7 18 10 WNW 1019,9 3,2 0,0
05.12.2018 11:00:00 -3,9 -6,7 16 9 WNW 1019,9 3,2 0,0
05.12.2018 10:00:00 -3,9 -6,7 11 6 NW 1019,5 4,0 0,0
05.12.2018 09:00:00 -4,4 -6,1 9 5 WNW 1019,0 6 0,0
05.12.2018 08:00:00 -4,4 -6,1 9 5 WNW 1018,8 16 0,0
05.12.2018 07:00:00 -4,4 -6,1 11 6 WNW 1018,5 10 0,0
05.12.2018 06:00:00 -3,9 -6,1 18 10 W 1017,8 10 0,3
05.12.2018 05:00:00 -3,9 -6,1 13 7 WNW 1017,4 13 0,0
05.12.2018 04:00:00 -3,9 -6,1 13 7 WNW 1017,5 16 0,0
05.12.2018 03:00:00 -3,9 -6,1 11 6 W 1017,7 11 0,0
05.12.2018 02:00:00 -3,9 -6,1 15 8 W 1017,8 16 1,0
05.12.2018 01:00:00 -3,3 -3,9 8 4 - 1017,8 1,2 0,3
05.12.2018 00:00:00 -3,3 -3,9 15 8 W 1018,3 2,0 0,0
04.12.2018 23:00:00 -2,8 -3,9 9 5 W 1018,0 15 0,0
04.12.2018 22:00:00 -2,8 -3,9 11 6 W 1018,3 15 0,0
04.12.2018 21:00:00 -2,2 -3,9 16 9 W 1018,5 10 0,0
04.12.2018 20:00:00 -2,2 -3,9 13 7 W 1018,7 15 0,3
04.12.2018 19:00:00 -2,2 -3,3 9 5 WNW 1018,6 2,4 0,3
04.12.2018 18:00:00 -2,2 -3,9 13 7 WNW 1018,0 1,2 0,0
04.12.2018 17:00:00 -1,7 -3,9 9 5 WNW 1017,7 13 0,3
04.12.2018 16:00:00 -1,1 -5,0 11 6 WNW 1017,4 16 -
04.12.2018 15:00:00 -1,1 -4,4 11 6 W 1016,8 16 -
04.12.2018 14:00:00 -1,1 -4,4 13 7 W 1017,1 16 -
04.12.2018 13:00:00 -1,1 -3,9 11 6 - 1017,5 16 -
04.12.2018 12:00:00 -1,1 -3,9 11 6 WNW 1018,3 16 -
04.12.2018 11:00:00 -1,1 -3,9 13 7 W 1019,7 16 -
04.12.2018 10:00:00 -1,1 -3,9 11 6 W 1019,1 16 0,0
04.12.2018 09:00:00 -1,7 -2,8 13 7 NNW 1018,7 6 0,0
04.12.2018 08:00:00 -1,7 -3,3 11 6 WNW 1018,1 16 0,0
04.12.2018 07:00:00 -1,7 -2,8 16 9 WNW 1017,7 8 0,0
04.12.2018 06:00:00 -1,1 -2,8 15 8 WNW 1017,1 16 0,0
04.12.2018 05:00:00 -1,1 -2,8 16 9 WNW 1016,3 13 0,0
04.12.2018 04:00:00 -1,1 -2,8 13 7 WNW 1016,0 16 0,3

tt = temperature
td = dewpoint
ff = wind speed
dd = wind direction
ppp = reduced air pressure
vv = visibility
rr = precipitation

Next stations